Volver al catálogo

STARLINK-6286

ActivoComunicacionesVLEO
NORAD 56558·PAYLOAD·🇺🇸 United States

Lanzado May 14, 2023 desde Cape Canaveral Space Force Station

Loading…

Próximos Pases (próximas 24 horas)

TLE

ActualizadoSource: CelesTrak SupGP

Época: Sep 14, 2026, 21:42 UTC

1 56558C 23065BH  26257.90465278  .00026602  00000+0  96368-3 0  2575
2 56558  43.0020 238.4236 0001384 265.2032 314.4844 15.27560060    15

Sigue STARLINK-6286 en tiempo real con AllMySat

Download on the App Store